Tracking 19574 objects as of 16-Feb-2019
HD Live streaming from Space Station
objects crossing your sky now

LEASAT 5

Track LEASAT 5 now!
LEASAT 5 is classified as:


NORAD ID: 20410
Int'l Code: 1990-002B
Perigee: 35,947.7 km
Apogee: 36,023.7 km
Inclination: 11.8 °
Period: 1,445.9 minutes
Semi major axis: 42356 km
RCS: 12.5892 m2 (large)
Launch date: January 9, 1990
Source: United States (US)
Launch site: AIR FORCE EASTERN TEST RANGE (AFETR)

Ultra High Frequency (UHF) satellite communications services to Australia; leased at end of use by U.S. Navy to Royal Australian Navy.
aabbcc
Your satellite tracking list
Your tracking list is empty




NASA's NSSDC Master Catalog

Two Line Element Set (TLE):
1 20410U 90002B   19047.39799755 -.00000095  00000-0  00000+0 0  9997
2 20410  11.7855   6.9674 0008974 339.6702 210.4068  0.99590874 91749
Source of the keplerian elements: AFSPC